Location: *
(46.1833°N, 22.7667°E)
Time: 14:26:36
(UTC+00:00)

GP-B - Pass Details

Date: 17 September 2019
Orbit: 631 x 635 km, 89.8° (Epoch: 14 October)

Event Time Altitude Azimuth Distance (km) Brightness Sun altitude
Rises 17:07:09 0° 7° (N) 2,940 6.6 -6.0°
Reaches altitude 10° 17:09:28 10° 13° (NNE) 2,026 5.7 -6.3°
Maximum altitude 17:13:45 45° 87° (E) 862 3.4 -7.1°
Drops below altitude 10° 17:17:59 10° 161° (SSE) 2,008 5.4 -7.8°
Sets 17:20:16 0° 167° (SSE) 2,911 6.3 -8.2°
